When you browse on this site, cookies collect data to enhance your experience and personalize the content and advertising you see.
Visit our Privacy Policy to learn more. By continuing to use the site, you agree to this use of cookies and data.
  • In Czech Republic
  • List of Countries
  • For 7 days
  • Water Temperature
  • Satellite Maps
  • Weather Map
  • Weather Widgets
  • user-avatar
    Login

    Hourly Weather Mazari Sharif

    Today, 24 May, Friday

    Time Temperature Precipitation Wind Pressure Humidity
    00:00 +13°C° 0.8 mm 1 mps 653 mmHg 66%
    01:00 +13°C° 0.8 mm 1 mps 653 mmHg 66%
    02:00 +13°C° 0.2 mm 1 mps 653 mmHg 67%
    03:00 +13°C° 0.2 mm 1 mps 653 mmHg 68%
    04:00 +13°C° 0 mm 1 mps 653 mmHg 70%
    05:00 +13°C° 0.1 mm 1 mps 653 mmHg 68%
    06:00 +13°C° 0.1 mm 1 mps 654 mmHg 65%
    07:00 +13°C° 0.1 mm 0 mps 654 mmHg 63%
    08:00 +15°C° 0 mm 1 mps 655 mmHg 57%
    09:00 +18°C° 0 mm 1 mps 655 mmHg 51%
    10:00 +18°C° 0 mm 2 mps 656 mmHg 45%
    11:00 +19°C° 0 mm 2 mps 656 mmHg 42%
    12:00 +20°C° 0 mm 3 mps 656 mmHg 39%
    13:00 +21°C° 0 mm 3 mps 656 mmHg 36%
    14:00 +21°C° 0 mm 3 mps 656 mmHg 36%
    15:00 +21°C° 0 mm 3 mps 656 mmHg 36%
    16:00 +21°C° 0 mm 3 mps 656 mmHg 36%
    17:00 +20°C° 0 mm 3 mps 657 mmHg 40%
    18:00 +19°C° 0 mm 2 mps 657 mmHg 43%
    19:00 +19°C° 0 mm 1 mps 657 mmHg 47%
    20:00 +19°C° 0 mm 1 mps 657 mmHg 47%
    21:00 +18°C° 0 mm 1 mps 657 mmHg 48%
    22:00 +18°C° 0 mm 1 mps 657 mmHg 49%
    23:00 +18°C° 0 mm 1 mps 657 mmHg 49%

    Tomorrow, 25 May, Saturday

    Time Temperature Precipitation Wind Pressure Humidity
    00:00 +16°C° 0 mm 1 mps 657 mmHg 50%
    01:00 +16°C° 0 mm 1 mps 656 mmHg 50%
    02:00 +16°C° 0 mm 1 mps 656 mmHg 50%
    03:00 +16°C° 0 mm 1 mps 656 mmHg 49%
    04:00 +15°C° 0 mm 1 mps 656 mmHg 49%
    05:00 +18°C° 0 mm 1 mps 657 mmHg 43%
    06:00 +19°C° 0 mm 1 mps 657 mmHg 38%
    07:00 +20°C° 0 mm 2 mps 658 mmHg 33%
    08:00 +21°C° 0 mm 2 mps 658 mmHg 30%
    09:00 +22°C° 0 mm 3 mps 658 mmHg 28%
    10:00 +24°C° 0 mm 3 mps 658 mmHg 26%
    11:00 +25°C° 0 mm 4 mps 658 mmHg 25%
    12:00 +25°C° 0 mm 4 mps 658 mmHg 25%
    13:00 +26°C° 0 mm 5 mps 658 mmHg 24%
    14:00 +26°C° 0 mm 5 mps 658 mmHg 25%
    15:00 +25°C° 0 mm 5 mps 658 mmHg 25%
    16:00 +25°C° 0 mm 5 mps 657 mmHg 26%
    17:00 +23°C° 0 mm 4 mps 657 mmHg 28%
    18:00 +22°C° 0 mm 3 mps 657 mmHg 31%
    19:00 +21°C° 0 mm 2 mps 657 mmHg 33%
    20:00 +20°C° 0.1 mm 2 mps 657 mmHg 35%
    21:00 +20°C° 0.1 mm 2 mps 657 mmHg 36%
    22:00 +19°C° 0.1 mm 2 mps 657 mmHg 38%
    23:00 +19°C° 0.1 mm 2 mps 657 mmHg 39%

    Day after tomorrow, 26 May, Sunday

    Time Temperature Precipitation Wind Pressure Humidity
    00:00 +18°C° 0.1 mm 2 mps 657 mmHg 40%
    01:00 +18°C° 0.1 mm 2 mps 657 mmHg 41%
    02:00 +17°C° 0 mm 2 mps 657 mmHg 42%
    03:00 +18°C° 0 mm 1 mps 657 mmHg 43%
    04:00 +18°C° 0 mm 1 mps 657 mmHg 44%
    05:00 +19°C° 0 mm 1 mps 657 mmHg 40%
    06:00 +20°C° 0 mm 1 mps 658 mmHg 36%
    07:00 +21°C° 0 mm 1 mps 658 mmHg 33%
    08:00 +22°C° 0 mm 1 mps 659 mmHg 31%
    09:00 +23°C° 0 mm 1 mps 659 mmHg 30%
    10:00 +24°C° 0 mm 2 mps 659 mmHg 28%
    11:00 +24°C° 0 mm 2 mps 659 mmHg 27%
    12:00 +25°C° 0 mm 2 mps 659 mmHg 26%
    13:00 +26°C° 0 mm 3 mps 658 mmHg 24%
    14:00 +26°C° 0 mm 3 mps 658 mmHg 24%
    15:00 +26°C° 0 mm 3 mps 658 mmHg 24%
    16:00 +26°C° 0 mm 3 mps 658 mmHg 24%
    17:00 +25°C° 0 mm 3 mps 658 mmHg 26%
    18:00 +24°C° 0 mm 2 mps 658 mmHg 27%
    19:00 +23°C° 0 mm 2 mps 658 mmHg 29%
    20:00 +21°C° 0 mm 2 mps 657 mmHg 31%
    21:00 +22°C° 0 mm 1 mps 657 mmHg 32%
    22:00 +21°C° 0 mm 1 mps 657 mmHg 33%
    23:00 +20°C° 0 mm 1 mps 657 mmHg 35%

    27 May, Monday

    Time Temperature Precipitation Wind Pressure Humidity
    00:00 +20°C° 0 mm 1 mps 656 mmHg 37%
    01:00 +17°C° 0 mm 0 mps 656 mmHg 38%
    02:00 +18°C° 0 mm 1 mps 656 mmHg 38%
    03:00 +18°C° 0 mm 1 mps 656 mmHg 39%
    04:00 +16°C° 0 mm 1 mps 655 mmHg 39%
    05:00 +19°C° 0 mm 1 mps 656 mmHg 35%
    06:00 +21°C° 0 mm 1 mps 657 mmHg 30%
    07:00 +23°C° 0 mm 1 mps 658 mmHg 26%
    08:00 +24°C° 0 mm 1 mps 658 mmHg 24%
    09:00 +25°C° 0 mm 2 mps 658 mmHg 21%
    10:00 +26°C° 0 mm 2 mps 658 mmHg 19%
    11:00 +27°C° 0 mm 2 mps 658 mmHg 17%
    12:00 +27°C° 0 mm 3 mps 658 mmHg 16%
    13:00 +28°C° 0 mm 3 mps 658 mmHg 15%
    14:00 +28°C° 0 mm 3 mps 657 mmHg 14%
    15:00 +28°C° 0 mm 3 mps 657 mmHg 14%
    16:00 +28°C° 0 mm 3 mps 657 mmHg 14%
    17:00 +27°C° 0 mm 3 mps 657 mmHg 16%
    18:00 +25°C° 0 mm 2 mps 657 mmHg 18%
    19:00 +24°C° 0 mm 1 mps 657 mmHg 20%
    20:00 +23°C° 0 mm 1 mps 656 mmHg 22%
    21:00 +22°C° 0 mm 1 mps 656 mmHg 23%
    22:00 +21°C° 0 mm 1 mps 656 mmHg 25%
    23:00 +21°C° 0 mm 1 mps 656 mmHg 25%

    28 May, Tuesday

    Time Temperature Precipitation Wind Pressure Humidity
    00:00 +20°C° 0 mm 1 mps 655 mmHg 26%
    01:00 +20°C° 0 mm 1 mps 655 mmHg 26%
    02:00 +19°C° 0 mm 1 mps 655 mmHg 26%
    03:00 +19°C° 0 mm 1 mps 655 mmHg 26%
    04:00 +19°C° 0 mm 1 mps 655 mmHg 26%
    05:00 +20°C° 0 mm 1 mps 656 mmHg 24%
    06:00 +22°C° 0 mm 1 mps 657 mmHg 21%
    07:00 +24°C° 0 mm 1 mps 658 mmHg 18%
    08:00 +25°C° 0 mm 1 mps 658 mmHg 17%
    09:00 +26°C° 0 mm 1 mps 658 mmHg 16%
    10:00 +27°C° 0 mm 1 mps 658 mmHg 15%
    11:00 +28°C° 0 mm 2 mps 658 mmHg 14%
    12:00 +29°C° 0 mm 2 mps 658 mmHg 14%
    13:00 +30°C° 0 mm 3 mps 658 mmHg 13%
    14:00 +30°C° 0 mm 3 mps 657 mmHg 13%
    15:00 +30°C° 0 mm 3 mps 657 mmHg 14%
    16:00 +30°C° 0 mm 3 mps 657 mmHg 14%
    17:00 +28°C° 0 mm 2 mps 657 mmHg 16%
    18:00 +27°C° 0 mm 2 mps 657 mmHg 19%
    19:00 +25°C° 0 mm 1 mps 656 mmHg 21%
    20:00 +25°C° 0 mm 1 mps 656 mmHg 22%
    21:00 +24°C° 0 mm 1 mps 656 mmHg 24%
    22:00 +23°C° 0 mm 1 mps 656 mmHg 25%
    23:00 +22°C° 0 mm 1 mps 656 mmHg 25%

    29 May, Wednesday

    Time Temperature Precipitation Wind Pressure Humidity
    00:00 +22°C° 0 mm 1 mps 655 mmHg 25%
    01:00 +21°C° 0 mm 1 mps 655 mmHg 25%
    02:00 +21°C° 0 mm 1 mps 655 mmHg 25%
    03:00 +20°C° 0 mm 1 mps 655 mmHg 25%
    04:00 +20°C° 0 mm 1 mps 655 mmHg 25%
    05:00 +22°C° 0 mm 1 mps 655 mmHg 23%
    06:00 +24°C° 0 mm 1 mps 656 mmHg 20%
    07:00 +25°C° 0 mm 1 mps 657 mmHg 17%
    08:00 +26°C° 0 mm 1 mps 657 mmHg 16%
    09:00 +27°C° 0 mm 1 mps 657 mmHg 15%
    10:00 +28°C° 0 mm 2 mps 657 mmHg 14%
    11:00 +29°C° 0 mm 2 mps 657 mmHg 14%
    12:00 +30°C° 0 mm 3 mps 657 mmHg 14%
    13:00 +30°C° 0 mm 3 mps 656 mmHg 13%
    14:00 +30°C° 0 mm 3 mps 656 mmHg 13%
    15:00 +30°C° 0 mm 3 mps 656 mmHg 13%
    16:00 +30°C° 0 mm 3 mps 656 mmHg 13%
    17:00 +29°C° 0 mm 2 mps 655 mmHg 16%
    18:00 +27°C° 0 mm 2 mps 655 mmHg 18%
    19:00 +26°C° 0 mm 1 mps 655 mmHg 20%
    20:00 +25°C° 0 mm 1 mps 655 mmHg 20%
    21:00 +25°C° 0 mm 1 mps 655 mmHg 21%
    22:00 +24°C° 0 mm 1 mps 655 mmHg 21%
    23:00 +23°C° 0 mm 1 mps 654 mmHg 22%
    Show more